User: anonymous   Login
Location: Brno
(49.2000°N, 16.6330°E)
Time: 21:57:53
(UTC+02:00)
Language:

Iridium 2 - Orbit

View from above orbital plane
View from above orbital plane
View from above satellite
View from above satellite

Ground track
Ground track

The orbit data is extracted from the following two-line orbital elements,

1 25527U 98066A   16126.42805736  .00002756  00000-0  14510-3 0  9995
2 25527  85.5289 272.6393 0011156 138.3015 221.9076 15.15105133956100
Epoch (UTC): 05 May 2016 10:16:24
Eccentricity: 0.0011156
inclination: 85.5289°
perigee height: 513 km
apogee height: 528 km
right ascension of ascending node: 272.6393°
argument of perigee: 138.3015°
revolutions per day: 15.15105133
mean anomaly at epoch: 221.9076°
orbit number at epoch: 95610

The dashed part of the orbit path shows where the satellite is in the earth's shadow,  

DLR